User: anonymous   Login
Location: Berg
(47.2344°N, 9.5296°E)
Time: 08:56:45
(UTC+00:00)
Language:

Cosmos 1833 Rocket - Orbit

View from above orbital plane
View from above orbital plane
View from above satellite
View from above satellite

Ground track
Ground track

The orbit data is extracted from the following two-line orbital elements,

1 17590U 87027B   21102.41064423 -.00000041  00000-0  33249-5 0  9998
2 17590  71.0015  91.8176 0006430 316.0238  44.0373 14.16798079761508
Epoch (UTC): 12 April 2021 09:51:19
Eccentricity: 0.0006430
inclination: 71.0015°
perigee height: 831 km
apogee height: 841 km
right ascension of ascending node: 91.8176°
argument of perigee: 316.0238°
revolutions per day: 14.16798079
mean anomaly at epoch: 44.0373°
orbit number at epoch: 76150

The dashed part of the orbit path shows where the satellite is in the earth's shadow,  

DLR